Regional Weather Roundup
Issued by NWS

Home | Current Version | Previous Version | Graphics & Text | Print | Product List | Glossary Off
Versions: 1 2 3 4 5 6 7 8 9 10 11 12 13 14 15 16 17 18 19 20 21 22 23 24 25 26 27 28 29 30 31 32 33 34 35 36 37 38 39 40 41 42 43 44 45 46 47 48 49 50

000
ASUS43 KIND 281959
RWRIN

WEATHER ROUNDUP FOR INDIANA
NATIONAL WEATHER SERVICE INDIANAPOLIS IN
300 PM EST FRI NOV 28 2014

NOTE: "FAIR" INDICATES FEW OR NO CLOUDS BELOW 12,000 FEET WITH NO
SIGNIFICANT WEATHER AND/OR OBSTRUCTIONS TO VISIBILITY.

* - STATION DOES NOT REPORT WEATHER SUCH AS PRECIPITATION OR FOG.

+ - STATION NOT QUALITY CONTROLLED BY THE NATIONAL WEATHER SERVICE.
    USE DATA WITH CAUTION...ESPECIALLY DEWPOINT AND RELATIVE
    HUMIDITY OBSERVATIONS.

INZ001>003-010>013-019-020-282100-
NORTHWEST INDIANA

CITY           SKY/WX    TMP DP  RH WIND       PRES   REMARKS
GARY /AIRPORT/ CLOUDY    32  18  55 S18       30.07F WCI  20
VALPARAISO     NOT AVBL

$$

LMZ046-743>745-282100-
SOUTHERN LAKE MICHIGAN

STATION/POSITION TIME  TEMP WIND        PRES
                       AIR  DIR/SP/G
                 (UTC) (F)  (DEG/KT/KT) (MB)
MICHIGAN CITY    1900   28  120/ 13/ 17   N/A

$$

INZ004-005-014>016-021>024-282100-
NORTH CENTRAL INDIANA

CITY           SKY/WX    TMP DP  RH WIND       PRES   REMARKS
GOSHEN         MOSUNNY   28  19  69 S9        30.13F WCI  19
SOUTH BEND     PTSUNNY   28  19  69 SE15      30.11F WCI  16

$$

INZ006>009-017-018-025>027-282100-
NORTHEAST INDIANA

CITY           SKY/WX    TMP DP  RH WIND       PRES   REMARKS
ANGOLA *+      MOSUNNY   25  19  80 S9        30.16F WCI  15
FORT WAYNE     FLURRIES  30  18  60 S14       30.18F WCI  19

$$

INZ028-029-035-036-043>045-051>053-282100-
WEST CENTRAL INDIANA

CITY           SKY/WX    TMP DP  RH WIND       PRES   REMARKS
GREENCASTLE +  PTSUNNY   34  23  64 SE15      30.13F WCI  24
LAFAYETTE      CLOUDY    32  22  66 SE12G20   30.11F WCI  23
TERRE HAUTE    MOSUNNY   38  27  64 S15       30.12F

$$

INZ030>032-037>040-046>048-054>057-064-065-282100-
CENTRAL INDIANA

CITY           SKY/WX    TMP DP  RH WIND       PRES   REMARKS
ANDERSON       SUNNY     30  18  59 S12G23    30.18F WCI  21
INDIANAPOLIS   PTSUNNY   32  19  58 SE15      30.14F WCI  22
-EAGLE CREEK   PTSUNNY   32  19  58 S12       30.15F WCI  23
KOKOMO *+      PTSUNNY   30  19  64 S17       30.14F WCI  18
MT COMFORT *+  PTSUNNY   30  14  51 S12       30.17F WCI  21
SHELBYVILLE    MOSUNNY   33  21  61 S16       30.18F WCI  23

$$

INZ033-034-041-042-049-050-058-059-282100-
EAST CENTRAL INDIANA

CITY           SKY/WX    TMP DP  RH WIND       PRES   REMARKS
MUNCIE         PTSUNNY   32  16  51 S10       30.17F WCI  24

$$

INZ060-061-067>069-081>083-085>088-282100-
SOUTHWEST INDIANA

CITY           SKY/WX    TMP DP  RH WIND       PRES   REMARKS
EVANSVILLE     SUNNY     42  28  57 S13G21    30.18F
HUNTINGBURG *+ SUNNY     39  27  60 S14G20    30.18F

$$

INZ062-063-066-070>080-084-089>092-282100-
SOUTH CENTRAL AND SOUTHEAST INDIANA

CITY           SKY/WX    TMP DP  RH WIND       PRES   REMARKS
BLOOMINGTON    MOSUNNY   36  23  59 S15G22    30.15F

$$




USA.gov is the U.S. government's official web portal to all federal, state and local government web resources and services.